Regional Weather Roundup
Issued by NWS Grand Forks, ND

Home | Current Version | Previous Version | Graphics & Text | Print | Product List | Glossary On
Versions: 1 2 3 4 5 6 7 8 9 10 11 12 13 14 15 16 17 18 19 20 21 22 23 24 25 26 27 28 29 30 31 32 33 34 35 36 37 38 39 40 41 42 43 44 45 46 47 48 49 50
882
ASUS43 KFGF 211810
RWRFGF
PRAIRIE TO PINES  WEATHER ROUNDUP
NATIONAL WEATHER SERVICE EASTERN NORTH DAKOTA/GRAND FORKS ND
100 PM CDT THU MAY 21 2015

 **SATELLITE DATA USED TO AUGMENT SKY COVER AT AUTOMATED STATIONS**
 *****  WEATHER ACROSS EASTERN NORTH DAKOTA  *****

CITY           SKY/WX    TMP DP  RH WIND       PRES   REMARKS
GRAND FORKS    MOSUNNY   64  34  32 N8        30.15S
6HR MIN TEMP:  43; 6HR MAX TEMP:  65;

GRAND FRKS AFB SUNNY     63  36  36 N7        30.16S
GRAND FRKS NWS   N/A     64 N/A N/A NE9         N/A
DEVILS LAKE    SUNNY     63  27  25 SW3       30.16F
6HR MIN TEMP:  43; 6HR MAX TEMP:  63;

FARGO          SUNNY     65  39  38 N7        30.14S
WAHPETON ARPT  CLEAR     64  32  29 N6G17     30.14S
$$

 ***** WEATHER ACROSS CENTRAL AND WESTERN NORTH DAKOTA  *****

CITY           SKY/WX    TMP DP  RH WIND       PRES   REMARKS
BISMARCK       MOSUNNY   73  34  23 NW8       30.17F
6HR MIN TEMP:  46; 6HR MAX TEMP:  73;

MINOT          SUNNY     68  36  30 CALM      30.16S
6HR MIN TEMP:  43; 6HR MAX TEMP:  68;

JAMESTOWN      SUNNY     66  37  34 VRB7      30.15F
6HR MIN TEMP:  44; 6HR MAX TEMP:  66;

MINOT AFB      SUNNY     72  37  28 VRB6      30.15S
GARRISON         N/A     72  37  28 VRB3      30.16S
WILLISTON      SUNNY     70  33  25 VRB3      30.19F
6HR MIN TEMP:  40; 6HR MAX TEMP:  71;

DICKINSON      SUNNY     67  29  24 VRB5      30.20S
6HR MIN TEMP:  37; 6HR MAX TEMP:  68;

HETTINGER      MOSUNNY   65  30  27 VRB5      30.22F
6HR MIN TEMP:  36; 6HR MAX TEMP:  65;

$$

 *****  OTHER AIRPORT OBSERVATIONS IN OUR AREA  *****

CITY           SKY/WX    TMP DP  RH WIND       PRES   REMARKS
WALHALLA       FAIR      63  34  34 E6        30.17F
GRAFTON AIRPOR FAIR      63  36  36 N12       30.17S
VALLEY CITY AR FAIR      64  28  25 NW8       30.16S
CANDO          FAIR      66  27  22 NW3       30.17F
CAVALIER APRT  FAIR      63  37  39 N9        30.17S
GWINNER        NOT AVBL
SHEYENNE NWR     N/A     67  35  31 N6        29.95S
ROLLA            N/A     64  23  20 NE6       30.19S
 ***** THE ABOVE OBSERVATIONS ARE NON NWS ARE NOT QUALITY
       CONTROLLED AND MAY MIS-REPORT RAIN FOR SNOW...
$$

  *****  WEATHER ACROSS NORTHERN MINNESOTA  *****

CITY           SKY/WX    TMP DP  RH WIND       PRES   REMARKS
FLAG ISLAND    SUNNY     55  34  44 N10       30.12S
WARROAD        SUNNY     55  36  47 E10       30.14S
ROSEAU         SUNNY     63  36  36 N15G25    30.13S
HALLOCK        SUNNY     64  32  29 N7        30.15S
THF RVR FALLS  SUNNY     63  30  29 N13G18    30.14S
6HR MIN TEMP:  45; 6HR MAX TEMP:  63;

BAUDETTE       SUNNY     59  31  34 N14       30.12S
6HR MIN TEMP:  46; 6HR MAX TEMP:  59;

WASKISH        SUNNY     61  34  36 NW12G18   30.11S
CROOKSTON      SUNNY     64  34  32 NW7       30.14F
STEPHEN NDAWN    N/A     63  37  39 N9          N/A
GREENBUSH NDAW   N/A     63  36  36 N7          N/A
$$
  *****  WEATHER ACROSS CENTRAL AND WEST MINNESOTA  *****

CITY           SKY/WX    TMP DP  RH WIND       PRES   REMARKS
FOSSTON        SUNNY     63  28  27 N7G18     30.13S
BEMIDJI        SUNNY     61  32  33 N8        30.11F
PARK RAPIDS    SUNNY     65  29  25 N10       30.09S
6HR MIN TEMP:  46; 6HR MAX TEMP:  66;

ELBOW LAKE     FAIR      64  37  37 NW10G17   30.11F
6HR MIN TEMP:  46; 6HR MAX TEMP:  64;

WADENA         SUNNY     64  34  32 N12       30.09S
DETROIT LAKES  SUNNY     63  32  31 NW18      30.13F
MOORHEAD       SUNNY     63  37  39 NW9       30.14F
FERGUS FALLS   SUNNY     64  36  34 N9G17     30.13S
MORRIS MN      SUNNY     70  34  26 NW17G23   30.11S
STAPLES        SUNNY     66  27  22 N12G20    30.08S
$$
  *****  WEATHER ELSEWHERE ACROSS MINNESOTA  *****

CITY           SKY/WX    TMP DP  RH WIND       PRES   REMARKS
DULUTH         SUNNY     61  35  37 SE7       30.01F
6HR MIN TEMP:  50; 6HR MAX TEMP:  61;

INTRNTL FALLS  SUNNY     59  31  34 NW8       30.08S
6HR MIN TEMP:  45; 6HR MAX TEMP:  60;

ELY            SUNNY     59  25  27 NW13G21   30.03S
CLOQUET        SUNNY     64  21  19 NW14G22   30.02S
WHEATON        SUNNY     64  37  36 NW12G18   30.15S
BRAINERD       SUNNY     64  32  30 N15       30.07S
6HR MIN TEMP:  49; 6HR MAX TEMP:  64;

HIBBING        SUNNY     64  30  27 NW15G25   30.04S
6HR MIN TEMP:  49; 6HR MAX TEMP:  64;

ALEXANDRIA     SUNNY     66  33  29 NW14G21   30.11S
6HR MIN TEMP:  48; 6HR MAX TEMP:  66;

SAINT CLOUD    SUNNY     68  37  32 N12G22    30.05R
6HR MIN TEMP:  48; 6HR MAX TEMP:  68;

MINNEAPOLIS    SUNNY     70  36  28 NW14G25   30.02S
6HR MIN TEMP:  47; 6HR MAX TEMP:  70;

$$

  *****  WEATHER ACROSS SOUTH DAKOTA  *****

CITY           SKY/WX    TMP DP  RH WIND       PRES   REMARKS
SIOUX FALLS    MOSUNNY   71  38  29 NW17G25   30.16F
6HR MIN TEMP:  47; 6HR MAX TEMP:  71;

BROOKINGS      SUNNY     66  37  34 N17G25    30.16F
WATERTOWN      SUNNY     66  41  40 NW12      30.16S
6HR MIN TEMP:  50; 6HR MAX TEMP:  66;

HURON          SUNNY     72  35  25 NW21      30.17F
6HR MIN TEMP:  42; 6HR MAX TEMP:  72;

SISSETON         N/A     69  33  26 N16       30.13S
ABERDEEN       SUNNY     71  41  33 NW14      30.16F
6HR MIN TEMP:  50; 6HR MAX TEMP:  71;

MITCHELL       SUNNY     72  35  25 W13G23    30.20F
PIERRE         SUNNY     65  36  34 SW7       30.22F
6HR MIN TEMP:  41; 6HR MAX TEMP:  66;

MOBRIDGE       SUNNY     72  30  21 NW10      30.17F
RAPID CITY     SUNNY     58  32  37 SE13      30.23F
6HR MIN TEMP:  32; 6HR MAX TEMP:  59;

$$

  *****  SOME WEATHER IN NEARBY STATES *****

CITY           SKY/WX    TMP DP  RH WIND       PRES   REMARKS
GLASGOW MT     SUNNY     66  34  30 SE10G22   30.16F
6HR MIN TEMP:  42; 6HR MAX TEMP:  66;

GREAT FALLS MT SUNNY     62  34  35 E9        30.03F
6HR MIN TEMP:  41; 6HR MAX TEMP:  62;

CHEYENNE WY    CLOUDY    44  38  79 S10       30.20S
6HR MIN TEMP:  36; 6HR MAX TEMP:  44;

SCOTTSBLUFF NE CLOUDY    53  39  59 SE10      30.22F
6HR MIN TEMP:  41; 6HR MAX TEMP:  53;

OMAHA NE       MOSUNNY   67  42  40 NW12      30.22F
6HR MIN TEMP:  44; 6HR MAX TEMP:  68;

DES MOINES IA  MOSUNNY   71  43  36 NW14G24   30.14F
6HR MIN TEMP:  44; 6HR MAX TEMP:  71;

DAVENPORT IA   SUNNY     65  39  38 W14G23    30.11F
6HR MIN TEMP:  42; 6HR MAX TEMP:  66;

CHICAGO IL     MOSUNNY   62  35  36 W16G23    30.05F
6HR MIN TEMP:  46; 6HR MAX TEMP:  63;

EAU CLAIRE WI  SUNNY     70  41  34 W13G22    29.97F
6HR MIN TEMP:  45; 6HR MAX TEMP:  71;

LA CROSSE WI   MOSUNNY   73  38  27 W9        30.00F
6HR MIN TEMP:  47; 6HR MAX TEMP:  74;

$$

  *****  SOME NATIONAL WEATHER *****

CITY           SKY/WX    TMP DP  RH WIND       PRES   REMARKS
LA GUARDIA NY  CLOUDY    60  31  33 SW9       29.96F
6HR MIN TEMP:  55; 6HR MAX TEMP:  62; 6HR PCP: TRACE;

RALEIGH NC     CLOUDY    64  62  93 VRB5      29.85S FOG
6HR MIN TEMP:  63; 6HR MAX TEMP:  71; 6HR PCP:  0.24;

ATLANTA GA     MOSUNNY   78  61  55 W13G21    29.98F
6HR MIN TEMP:  69; 6HR MAX TEMP:  79;

NEW ORLEANS LA PTSUNNY   86  69  56 CALM      30.02F HX  90
6HR MIN TEMP:  76; 6HR MAX TEMP:  87;

OKLAHOMA CITY  PTSUNNY   61  44  53 NE12G17   30.27F
ALBUQUERQUE NM CLOUDY    62  44  51 E25G31    30.15F
6HR MIN TEMP:  53; 6HR MAX TEMP:  64;

SALT LAKE CITY PTSUNNY   63  46  54 N8        29.94F
6HR MIN TEMP:  48; 6HR MAX TEMP:  64;

LOS ANGELES CA PTSUNNY   66  48  52 W7        29.96F



USA.gov is the U.S. government's official web portal to all federal, state and local government web resources and services.